[[{"header":{"parameterUnit":"m.s-1","parameterCategory":1,"la1":30.2991,"la2":30.254,"lo1":-89.0895,"lo2":-89.0444,"dy":0.0017,"dx":0.0017,"nx":28,"ny":28,"refTime":"2025-03-29T03:00:00:Z","depth":0,"parameterNumber":2,"parameterNumberName":"U-component_of_WINDS"},"data":[0,0,0,0,0,0,0,0,0,0,0,0,0,0,0,0,0,0,0,0,0,0,0,0,0,0,0,0,0,0,0,0,0,0,0,0,0,0,0,0,0,0,0,0,0,0,0,0,0,0,0,0,0,0,0,0,0,0,-4.6744,-4.6745,0,-4.6818,-4.6819,-4.682,-4.6784,-4.6782,-4.678,-4.6778,-4.6857,-4.6861,-4.6865,0,0,0,0,0,0,0,0,0,0,0,0,0,-4.6576,-4.6579,-4.6744,-4.6745,-4.6746,-4.6818,-4.6819,-4.682,-4.6784,-4.6782,-4.6779,-4.6777,-4.6856,-4.686,-4.6865,0,0,0,0,0,0,0,0,0,0,0,0,0,-4.6649,-4.658,-4.6744,-4.6737,-4.6737,-4.6818,-4.6819,-4.682,-4.6784,-4.6782,-4.6779,-4.6776,-4.6854,-4.686,-4.6866,-4.6959,0,0,-4.6883,-4.6886,0,0,0,0,0,0,0,0,-4.6645,-4.6656,-4.6737,-4.6737,-4.6738,-4.6789,-4.6788,-4.6867,-4.6785,-4.6766,-4.6778,-4.6775,-4.6837,-4.6844,-4.6864,-4.6963,-4.6966,-4.6884,-4.6887,-4.689,-4.6892,0,0,0,0,0,0,0,-4.664,-4.6652,-4.6773,-4.6738,-4.6739,-4.6731,-4.6738,-4.6803,-4.6817,-4.6768,-4.6765,-4.6774,-4.6836,-4.6859,-4.6866,-4.6967,-4.6884,-4.6889,-4.6892,-4.6895,-4.7147,-4.715,0,0,0,0,0,0,-4.6635,-4.6648,-4.6771,-4.6776,-4.6683,-4.6736,-4.6744,-4.6775,-4.6816,-4.6819,-4.6777,-4.6772,-4.685,-4.6859,-4.6868,-4.698,-4.689,-4.6895,-4.6899,-4.7143,-4.7147,-4.7151,0,0,0,0,0,0,-4.6631,-4.6646,-4.6768,-4.6711,-4.6726,-4.6742,-4.6777,-4.6778,-4.68,-4.6823,-4.6825,-4.6797,-4.6848,-4.686,-4.6937,-4.6983,-4.6898,-4.6903,-4.714,-4.7145,-4.7149,-4.7205,0,0,0,0,0,0,-4.6627,-4.6645,-4.668,-4.6712,-4.6729,-4.6834,-4.678,-4.6782,-4.681,-4.6805,-4.6842,-4.6846,-4.6847,-4.6928,-4.6942,-4.6989,-4.6908,-4.7136,-4.7142,-4.7148,-4.7199,-4.7211,-4.7222,0,0,0,0,0,-4.6621,-4.6694,-4.6682,-4.6697,-4.6773,-4.6837,-4.6847,-4.6846,-4.6814,-4.6849,-4.6864,-4.6844,-4.6975,-4.6936,-4.6952,-4.7001,-4.7133,-4.714,-4.7147,-4.7194,-4.7209,-4.7221,0,0,0,0,0,0,-4.6668,-4.6698,-4.6685,-4.677,-4.6801,-4.6831,-4.6876,-4.6861,-4.6903,-4.6897,-4.6895,-4.6903,-4.6983,-4.7,-4.6955,-4.7094,-4.7049,-4.706,-4.708,-4.7094,-4.7105,-4.7099,-4.6913,0,0,0,0,0,-4.6688,-4.6736,-4.676,-4.6833,-4.6849,-4.686,-4.6888,-4.6884,-4.6917,-4.693,-4.695,-4.6983,-4.7032,-4.7064,-4.711,-4.7202,-4.721,-4.7244,-4.7255,-4.7264,-4.7273,-4.7323,-4.7338,-4.7174,-4.7174,-4.7174,0,0,-4.6731,-4.6753,-4.6784,-4.6843,-4.6867,-4.6918,-4.6871,-4.6927,-4.6965,-4.6939,-4.7012,-4.7028,-4.7065,-4.7149,-4.7188,-4.7166,-4.732,-4.7273,-4.728,-4.7284,-4.7332,-4.7348,-4.7361,-4.7179,-4.7178,-4.7178,0,0,-4.6834,-4.6855,-4.6918,-4.6942,-4.6978,-4.6984,-4.7,-4.7031,-4.7041,-4.7114,-4.7095,-4.7141,-4.7224,-4.7251,-4.7276,-4.739,-4.7373,-4.7405,-4.7463,-4.7512,-4.7525,-4.7536,-4.7577,-4.7591,-4.7414,-4.7414,-4.7414,0,-4.6882,-4.6957,-4.6953,-4.701,-4.7037,-4.7014,-4.7078,-4.7102,-4.7152,-4.7172,-4.7146,-4.7251,-4.7274,-4.7365,-4.7392,-4.7413,-4.7431,-4.74,-4.7523,-4.7535,-4.7545,-4.7584,-4.7599,-4.7418,-4.7417,-4.7417,-4.7417,0,-4.7015,-4.7067,-4.7114,-4.7161,-4.7193,-4.7254,-4.726,-4.7293,-4.7287,-4.7297,-4.7372,-4.7399,-4.745,-4.7471,-4.7466,-4.7561,-4.7547,-4.7523,-4.7478,-4.7564,-4.7601,-4.7616,-4.7423,-4.7422,-4.742,-4.742,0,0,-4.7151,-4.7193,-4.7211,-4.7231,-4.7269,-4.731,-4.737,-4.7418,-4.7447,-4.7482,-4.7533,-4.7604,-4.7582,-4.761,-4.7608,-4.7651,-4.7739,-4.7621,-4.7622,-4.7642,-4.7846,-4.7864,-4.7881,-4.7728,-4.7731,-4.7733,-4.7843,0,-4.7256,-4.7359,-4.7357,-4.7453,-4.7502,-4.7481,-4.7533,-4.7562,-4.7573,-4.7616,-4.7629,-4.7679,-4.7646,-4.7663,-4.7704,-4.7719,-4.778,-4.7711,-4.7776,-4.7779,-4.7767,-4.79,-4.7919,-4.8021,-4.7857,-4.7859,-4.7861,0,-4.7394,-4.7431,-4.7532,-4.7562,-4.7582,-4.7629,-4.7673,-4.7715,-4.7748,-4.7753,-4.7784,-4.7775,-4.7837,-4.779,-4.7876,-4.783,-4.7856,-4.7868,-4.7872,-4.7878,-4.7825,-4.791,-4.8054,-4.8069,-4.7883,-4.7882,-4.788,0,-4.7483,-4.7559,-4.7629,-4.7647,-4.7684,-4.7717,-4.7734,-4.7764,-4.7793,-4.7833,-4.7852,-4.7898,-4.7924,-4.7961,-4.7965,-4.7931,-4.8052,-4.8005,-4.8058,-4.8058,-4.8085,-4.8083,-4.8235,-4.8102,-4.8102,-4.8101,-4.8101,0,-4.7601,-4.7664,-4.7669,-4.7712,-4.7782,-4.7779,-4.7848,-4.7863,-4.7889,-4.7936,-4.7921,-4.7965,-4.7968,-4.8014,-4.8018,-4.8088,-4.81,-4.8106,-4.8107,-4.8108,-4.8107,-4.8125,-4.8118,-4.8105,-4.8105,-4.8104,-4.8103,0,-4.7713,-4.7718,-4.7793,-4.7821,-4.7829,-4.788,-4.7904,-4.7946,-4.7954,-4.8013,-4.8027,-4.8042,-4.8095,-4.8102,-4.8165,-4.8168,-4.8253,-4.8246,-4.8241,-4.824,-4.8293,-4.8288,-4.8462,-4.8485,-4.8336,-4.8338,-4.8339,0,-4.7788,-4.7836,-4.7868,-4.7897,-4.7915,-4.7963,-4.7992,-4.7991,-4.8023,-4.8063,-4.81,-4.8151,-4.8192,-4.8278,-4.8295,-4.8343,-4.8337,-4.8395,-4.8345,-4.8344,-4.8339,-4.8336,-4.8341,-4.8405,-4.8407,-4.8408,-4.8409,0,-4.7922,-4.7922,-4.7964,-4.8007,-4.8042,-4.8076,-4.8108,-4.8134,-4.8137,-4.8173,-4.8226,-4.8258,-4.8321,-4.8372,-4.8419,-4.8438,-4.8425,-4.8425,-4.8439,-4.8441,-4.8437,-4.844,-4.8268,-4.8421,-4.842,-4.8419,-4.8418,-4.8418,-4.8018,-4.8059,-4.8088,-4.8135,-4.8158,-4.8189,-4.8229,-4.8242,-4.8286,-4.8336,-4.8333,-4.8392,-4.8424,-4.8485,-4.8508,-4.8554,-4.8536,-4.8557,-4.8563,-4.8568,-4.8573,-4.8429,-4.8563,-4.8563,-4.8562,-4.8562,-4.8562,0,-4.8152,-4.8168,-4.8212,-4.8256,-4.8293,-4.8275,-4.831,-4.8343,-4.8394,-4.8424,-4.8464,-4.8525,-4.8575,-4.8595,-4.8644,-4.8677,-4.8673,-4.869,-4.8688,-4.8693,-4.8587,-4.8569,-4.8693,-4.8693,-4.8693,-4.8693,-4.8693,-4.8693,-4.8225,-4.8293,-4.8297,-4.8377,-4.8393,-4.8449,-4.8471,-4.8499,-4.8523,-4.8591,-4.8631,-4.8643,-4.867,-4.8721,-4.8766,-4.877,-4.8789,-4.881,-4.8812,-4.8714,-4.87,-4.8688,-4.8671,-4.8814,-4.8814,-4.8914,-4.8915,-4.8916]},{"header":{"parameterUnit":"m.s-1","parameterCategory":1,"la1":30.2991,"la2":30.254,"lo1":-89.0895,"lo2":-89.0444,"dy":0.0017,"dx":0.0017,"nx":28,"ny":28,"refTime":"2025-03-29T03:00:00:Z","depth":0,"parameterNumber":3,"parameterNumberName":"V-component_of_WINDS"},"data":[0,0,0,0,0,0,0,0,0,0,0,0,0,0,0,0,0,0,0,0,0,0,0,0,0,0,0,0,0,0,0,0,0,0,0,0,0,0,0,0,0,0,0,0,0,0,0,0,0,0,0,0,0,0,0,0,0,0,8.2221,8.2222,0,8.2323,8.2324,8.2325,8.2242,8.2238,8.2235,8.2231,8.233,8.2336,8.2342,0,0,0,0,0,0,0,0,0,0,0,0,0,8.1952,8.1957,8.2221,8.2223,8.2224,8.2323,8.2324,8.2325,8.2242,8.2238,8.2234,8.223,8.2328,8.2335,8.2342,0,0,0,0,0,0,0,0,0,0,0,0,0,8.2063,8.1959,8.2221,8.2194,8.2193,8.2322,8.2324,8.2326,8.2243,8.2238,8.2233,8.2228,8.2326,8.2335,8.2343,8.2502,0,0,8.237,8.2374,0,0,0,0,0,0,0,0,8.2056,8.2073,8.2197,8.2197,8.2195,8.2264,8.2265,8.2385,8.2245,8.2224,8.2231,8.2225,8.2312,8.2322,8.2352,8.2507,8.2511,8.2371,8.2376,8.238,8.2383,0,0,0,0,0,0,0,8.2049,8.2068,8.2261,8.2199,8.2198,8.2176,8.2186,8.2287,8.2296,8.2225,8.222,8.2233,8.2311,8.2344,8.2354,8.2513,8.2371,8.2379,8.2384,8.2387,8.2804,8.281,0,0,0,0,0,0,8.2044,8.2062,8.2258,8.2264,8.2112,8.2185,8.2196,8.2247,8.2295,8.2297,8.2237,8.2229,8.2331,8.2344,8.2357,8.2547,8.238,8.2388,8.2393,8.2798,8.2805,8.2812,0,0,0,0,0,0,8.2039,8.2063,8.2254,8.2162,8.2184,8.2196,8.2253,8.2252,8.2285,8.2304,8.2305,8.227,8.2328,8.2345,8.2467,8.2549,8.2392,8.24,8.2792,8.2801,8.2809,8.2927,0,0,0,0,0,0,8.2032,8.2061,8.2123,8.2164,8.219,8.2364,8.2258,8.2258,8.2301,8.2291,8.2335,8.2337,8.2325,8.2455,8.2476,8.2558,8.2407,8.2784,8.2796,8.2806,8.2916,8.2939,8.2958,0,0,0,0,0,8.2022,8.2151,8.2126,8.215,8.2267,8.2369,8.2383,8.2369,8.2308,8.2369,8.2382,8.2335,8.2537,8.2468,8.2492,8.2577,8.2779,8.2792,8.2805,8.2906,8.2934,8.2958,0,0,0,0,0,0,8.2116,8.2155,8.2129,8.2274,8.2319,8.2355,8.2431,8.2398,8.246,8.2447,8.2425,8.2436,8.2565,8.2583,8.2506,8.2734,8.2648,8.2666,8.2717,8.2744,8.2765,8.2757,8.2415,0,0,0,0,0,8.2154,8.2236,8.2265,8.239,8.2415,8.242,8.2463,8.2449,8.2493,8.2511,8.2532,8.2576,8.2649,8.2698,8.2766,8.2919,8.2927,8.299,8.3011,8.3028,8.3044,8.3126,8.3154,8.2854,8.2854,8.2854,0,0,8.2233,8.2264,8.2316,8.241,8.2443,8.2527,8.2436,8.2527,8.2589,8.2524,8.2642,8.266,8.2707,8.2846,8.2908,8.2865,8.3129,8.3045,8.3059,8.3065,8.3142,8.3171,8.3196,8.2863,8.2862,8.286,0,0,8.2418,8.2451,8.2559,8.2595,8.2647,8.265,8.2677,8.2718,8.2728,8.2846,8.28,8.2872,8.2999,8.3035,8.307,8.3273,8.3232,8.3296,8.3405,8.3486,8.351,8.353,8.3602,8.3628,8.3311,8.3312,8.3312,0,8.2508,8.2634,8.2619,8.2715,8.2757,8.2706,8.2815,8.285,8.2921,8.2951,8.2903,8.3063,8.3091,8.3237,8.3287,8.3318,8.3346,8.3289,8.3508,8.3529,8.3548,8.3616,8.3643,8.3319,8.3318,8.3317,8.3317,0,8.2742,8.283,8.2911,8.2984,8.3036,8.3138,8.3138,8.3192,8.3173,8.3181,8.3303,8.3336,8.341,8.3444,8.3426,8.3589,8.3561,8.3511,8.3424,8.3584,8.3647,8.3673,8.3329,8.3327,8.3325,8.3323,0,0,8.2986,8.3052,8.3082,8.3115,8.317,8.3237,8.3337,8.3412,8.3459,8.3511,8.3593,8.3703,8.3658,8.3698,8.3684,8.3755,8.3913,8.3696,8.3697,8.3735,8.4094,8.4131,8.4161,8.3888,8.3893,8.3897,8.409,0,8.3173,8.3349,8.334,8.3504,8.3585,8.3539,8.3627,8.367,8.368,8.375,8.3761,8.3839,8.3774,8.3798,8.3866,8.388,8.3985,8.3866,8.3963,8.3967,8.3951,8.4194,8.4232,8.4413,8.4115,8.4119,8.4122,0,8.3414,8.3477,8.365,8.3695,8.3729,8.3808,8.3876,8.3944,8.3992,8.3995,8.4041,8.4016,8.4116,8.4029,8.4166,8.4086,8.4125,8.4138,8.4145,8.4151,8.4053,8.4206,8.447,8.4497,8.4161,8.4158,8.4155,0,8.3574,8.3702,8.3822,8.3852,8.3907,8.3964,8.399,8.4033,8.4079,8.4139,8.4169,8.4239,8.4277,8.4332,8.4326,8.4263,8.4466,8.4378,8.447,8.4471,8.4513,8.451,8.4785,8.4542,8.4541,8.4541,8.454,0,8.3783,8.389,8.3895,8.3969,8.4088,8.4077,8.4195,8.4214,8.4253,8.4329,8.4294,8.4365,8.4355,8.4426,8.4423,8.4537,8.4555,8.4559,8.4556,8.4561,8.456,8.4585,8.4571,8.4548,8.4546,8.4545,8.4544,0,8.398,8.3987,8.4116,8.4159,8.4173,8.4259,8.4295,8.4365,8.4374,8.4471,8.4493,8.4507,8.459,8.4591,8.4684,8.4682,8.4822,8.4806,8.4806,8.4802,8.4894,8.4885,8.5193,8.5233,8.4965,8.4968,8.497,0,8.4111,8.4194,8.4247,8.4297,8.4327,8.4407,8.4455,8.4448,8.4499,8.4561,8.4623,8.4704,8.4767,8.4902,8.4919,8.4991,8.4975,8.5079,8.4986,8.4989,8.4976,8.497,8.4978,8.5096,8.5099,8.5102,8.5104,0,8.4344,8.4345,8.4416,8.4491,8.455,8.4607,8.466,8.4702,8.4701,8.476,8.4846,8.4896,8.4994,8.5074,8.5144,8.5168,8.5136,8.5134,8.5158,8.5163,8.5159,8.5162,8.4854,8.5126,8.5123,8.5122,8.5121,8.512,8.4511,8.4583,8.4632,8.4714,8.4754,8.4805,8.4873,8.4892,8.4964,8.5045,8.5036,8.5131,8.5178,8.527,8.5301,8.5375,8.5338,8.5375,8.5384,8.5392,8.5402,8.515,8.5388,8.5387,8.5387,8.5386,8.5386,0,8.4741,8.4772,8.4847,8.4924,8.4988,8.4956,8.5013,8.5068,8.5153,8.5201,8.5266,8.5365,8.5443,8.5468,8.5543,8.5598,8.5585,8.5617,8.5612,8.5618,8.543,8.5401,8.5627,8.5627,8.5627,8.5627,8.5627,8.5626,8.4868,8.4987,8.4994,8.5133,8.5162,8.5257,8.5293,8.5339,8.5378,8.5491,8.5556,8.5573,8.5612,8.569,8.576,8.5766,8.5794,8.5833,8.5832,8.5656,8.5631,8.5608,8.558,8.584,8.584,8.6013,8.6015,8.6016]}]]